Location: Golden Pond Observatory
(36.7773°N, 88.0631°W)
Time: 03:23:03
(UTC-06:00)

Hubble Space Telescope - Pass Details

Date: 24 November 2019
Orbit: 536 x 540 km, 28.5° (Epoch: 06 December)

Event Time Altitude Azimuth Distance (km) Brightness Sun altitude
Rises 17:30:31 0° 250° (WSW) 2,667 6.6 -10.6°
Reaches altitude 10° 17:33:03 10° 237° (WSW) 1,777 4.8 -11.0°
Maximum altitude 17:36:28 25° 181° (S) 1,086 2.5 -11.7°
Drops below altitude 10° 17:39:53 10° 124° (SE) 1,779 3.1 -12.4°
Enters shadow 17:40:17 - 121° (ESE) 1,907 3.2 -12.4°
